User: anonymous   Login
Location: Winnipeg
(49.8830°N, 97.1670°W)
Time: 18:13:03
(UTC-05:00)
Language:

Envisat - Orbit

View from above orbital plane
View from above orbital plane
View from above satellite
View from above satellite

Ground track
Ground track

The orbit data is extracted from the following two-line orbital elements,

1 27386U 02009A   24151.90598330  .00000275  00000-0  10362-3 0  9996
2 27386  98.2812 113.5961 0001245  91.2639 287.7276 14.38581536166091
Epoch (UTC): 30 May 2024 21:44:36
Eccentricity: 0.0001245
inclination: 98.2812°
perigee height: 762 km
apogee height: 764 km
right ascension of ascending node: 113.5961°
argument of perigee: 91.2639°
revolutions per day: 14.38581536
mean anomaly at epoch: 287.7276°
orbit number at epoch: 16609

The dashed part of the orbit path shows where the satellite is in the earth's shadow,  

DLR